SCP
0 0 0 0 0 0 0 0 0 0 0 0 0 0 0 0 0 0 0 0 0 0 0 0 0 0 0 0 0 0 0 0 0 0 0 0 0 0 0 0 0 0 0 0 0 0 0
0 0 0 0 0 0 0 0 0 0 0 0 0 0 0 0 0 0 0 0 0 0 0 0 0 0 0 0 0 0 0 0 0 0 0 0 0 0 0 0 0 0 0 0 0 0 0
0 0 0 0 0 0 0 0 0 0 0 0 0 0 0 0 0 0 0 0 0 0 0 0 0 0 0 0 0 0 0 0 0 0 0 0 0 0 0 0 0 0 0 0 0 0 0
0 0 0 0 0 0 0 0 0 0 0 0 0 0 0 0 0 0 0 0 0 0 0 0 0 0 0 0 0 0 0 0 0 0 0 0 0 0 0 0 0 0 0 0 0 0 0
0 0 0 0 0 0 0 0 0 0 0 0 0 0 0 0 0 0 0 0 0 0 0 0 0 -0 0 0 0 0 0 0 0 0 0 0 0 0 0 0 0 0 0 0 0 0 0
0 0 0 0 0 0 0 0 0 0 0 0 0 0 0 0 0 0 0 0 0 0 0 0 0 0 0 0 0 0 0 0 0 0 0 0 0 0 0 0 0 0 0 0 0 0 0
0 0 0 0 0 0 0 0 0 0 0 0 0 0 0 0 0 0 0 0 0 0 -0 -0 0 0 0 0 0 0 0 0 0 0 0 0 0 0 0 0 0 0 0 0 0 0 0
0 0 0 0 0 0 0 0 0 0 0 0 0 0 0 0 0 0 0 0 0 0 0 0 0 0 0 0 0 0 0 0 0 0 0 0 0 0 0 -0 0 0 0 0 0 0 0
0 0 0 0 0 0 0 0 0 0 0 0 0 0 0 0 0 0 0 0 0 0 0 0 0 0 0 0 0 0 0 -0 -0 -0 -0 0 0 0 0 0 0 0 0 0 0 0 0
0 0 0 0 0 0 0 0 0 0 0 0 0 0 0 0 0 0 0 0 0 0 0 0 0 0 0 0 0 0 0 0 -0 0 -0 0 0 -0 0 0 0 0 0 0 0 0 0
0 0 0 0 0 0 0 0 0 0 0 0 0 0 0 0 0 0 0 0 0 0 0 0 0 0 0 0 0 0 0 0 0 0 0 0 0 0 0 0 0 0 0 0 0 0 0
0 0 0 0 0 0 0 0 0 0 0 0 0 0 0 0 0 0 0 0 0 0 0 0 0 0 0 0 0 0 0 0 -0 0 0 0 -0 -0 0 0 0 0 0 0 0 0 0
0 0 0 0 0 0 0 0 -0 0 0 0 0 0 0 0 0 0 0 0 0 0 0 0 0 0 0 0 0 0 0 0 0 0 0 0 0 0 0 0 0 0 0 0 0 0 0
0 0 0 0 0 0 0 -0 -0 0 0 0 0 0 0 0 0 0 0 0 0 0 0 0 0 0 0 0 0 0 0 0 -0 0 0 0 0 0 0 0 0 0 0 0 0 0 0
0 0 0 0 0 0 -0 -0 0 0 0 0 0 0 0 0 0 0 -0 0 0 0 0 0 0 0 0 0 0 0 0 0 0 0 0 0 0 0 0 0 0 0 0 -0 -0 -0 -0
0 0 0 0 0 -0 0 0 0 0 0 0 0 0 0 0 0 0 0 0 0 0 0 0 0 0 0 0 0 0 0 0 0 0 0 0 0 0 0 0 0 -0 0 0 0 0 0
0 0 0 -0 -0 0 0 0 0 0 0 0 0 0 0 0 0 0 0 0 0 0 0 0 0 0 0 0 0 0 0 0 0 0 0 0 0 0 0 0 -0 0 0 0 0 0 0
0 0 -0 -0 0 0 0 0 0 0 0 0 0 0 0 0 0 0 0 0 0 0 0 0 0 0 0 0 0 0 0 0 0 0 0 0 0 0 0 0 -0 -0 0 0 0 0 0
0 -0 -0 0 0 0 0 0 0 0 0 0 0 0 0 0 0 0 0 0 0 0 0 0 0 0 0 0 0 0 0 0 0 0 0 0 0 0 0 0 0 0 0 0 0 0 0
0 0 0 0 0 0 0 0 0 0 0 0 0 0 0 0 0 0 0 0 0 0 0 0 0 0 0 0 0 0 0 0 0 0 0 0 -0 0 0 0 0 0 -0 0 0 0 0
0 0 0 0 0 0 0 0 0 0 0 0 0 0 0 0 0 0 0 0 0 0 0 0 0 0 0 0 0 0 0 0 0 0 0 0 0 0 0 0 -0 0 -0 0 0 -0 0
0 0 0 0 0 0 0 0 0 0 0 0 0 0 0 0 0 0 0 0 0 0 0 0 0 0 0 0 0 0 0 0 0 0 0 0 -0 0 0 0 0 -0 0 0 0 0 0
0 0 0 0 0 0 0 0 0 0 0 0 0 0 0 0 0 0 0 0 0 0 0 0 0 0 0 0 0 0 0 -0 -0 -0 -0 -0 -0 0 -0 0 0 -0 0 -0 -0 0 0
0 0 0 0 0 0 0 0 0 0 0 0 0 0 0 0 0 0 0 0 0 0 0 0 0 0 0 0 0 0 0 -0 -0 -0 0 0 0 0 0 0 0 0 0 0 -0 -0 -0
0 -0 0 0 0 0 0 0 0 0 0 0 0 0 0 0 0 0 0 0 0 0 0 0 0 0 0 0 0 0 -0 -0 -0 -0 0 0 -0 0 -0 0 0 0 0 0 0 0 0
-0 -0 0 0 0 0 0 0 0 0 0 0 0 0 0 0 0 0 0 0 0 0 0 0 0 0 0 0 0 0 -0 -0 -0 -0 -0 0 -0 0 0 0 0 0 0 0 0 0 0
-0 -0 0 0 0 0 0 0 0 0 0 0 0 0 0 0 0 0 0 0 0 0 0 0 0 0 0 0 0 0 -0 -0 -0 -0 0 0 -0 0 0 0 0 0 0 0 0 0 0
-0 0 0 0 0 0 0 0 0 0 0 0 0 0 0 0 0 0 0 0 0 0 0 0 0 -0 0 0 0 -0 -0 0 0 -0 0 0 0 0 0 0 0 -0 0 0 0 0 0
-0 0 0 0 0 0 0 0 0 0 0 0 0 0 0 -0 -0 -0 -0 -0 0 0 0 0 0 -0 0 0 -0 0 0 0 0 0 0 0 0 0 0 0 0 0 0 0 0 -0 -0
Wind_Speed_500mb
92 91 85 79 70 58 52 47 44 41 37 35 34 35 34 34 31 31 35 34 35 35 34 33 35 37 31 17 30 24 28 31 15 15 22 28 34 40 39 40 47 47 45 60 58 63 60
100 92 93 86 73 64 53 47 43 40 37 37 33 32 32 34 33 37 38 37 37 37 36 34 35 33 23 25 15 12 22 15 18 24 23 28 32 34 40 36 37 48 53 49 55 53 53
98 95 86 82 78 66 56 48 44 40 37 34 32 31 35 37 38 39 39 37 36 36 36 33 29 24 24 50 21 20 23 21 23 28 32 27 29 35 28 27 49 45 38 38 43 52 48
103 89 87 79 69 67 57 50 44 39 35 34 34 35 34 36 40 40 38 35 34 35 32 26 20 12 21 16 20 26 28 33 32 31 31 30 25 33 39 37 44 38 34 35 34 43 52
115 96 94 79 74 70 53 50 43 38 36 36 33 30 33 37 39 35 31 28 29 28 24 18 6 18 20 13 15 8 13 18 17 25 28 24 27 33 31 28 32 30 37 44 48 43 39
116 100 92 77 67 60 56 47 44 41 37 31 28 28 30 34 30 24 21 16 20 17 9 5 15 15 20 14 10 14 14 16 15 15 22 28 21 24 27 28 33 34 36 39 38 32 32
113 105 89 76 66 59 55 49 44 37 35 31 27 24 25 23 17 11 10 5 7 6 25 28 6 30 30 25 27 37 37 26 23 26 24 33 23 31 37 39 42 39 44 46 41 45 41
116 95 79 71 65 57 49 42 39 36 32 29 22 20 18 15 5 7 7 7 5 8 16 35 29 25 23 16 18 10 13 31 24 29 31 29 32 34 38 39 35 39 37 39 42 43 37
100 84 77 67 58 48 40 37 34 31 29 29 22 16 13 7 5 6 4 1 6 9 12 13 22 14 7 10 12 5 3 20 31 31 36 38 32 32 40 35 36 37 35 33 37 35 45
100 83 68 57 47 40 39 35 30 29 27 26 19 12 5 14 5 4 6 5 9 5 8 22 20 13 13 11 13 14 9 14 28 33 37 39 36 44 36 32 32 40 33 36 34 33 25
80 68 58 52 44 43 37 29 23 25 25 21 14 9 10 16 13 3 5 9 10 3 6 24 21 10 8 12 19 21 8 15 25 30 25 34 34 38 41 40 34 39 29 30 31 28 33
56 55 51 52 52 35 28 25 22 22 20 15 12 10 12 6 4 5 11 4 1 9 9 12 7 4 13 13 16 6 16 20 26 26 33 41 49 36 33 30 32 31 29 32 28 26 29
58 53 45 39 32 31 30 19 23 20 16 12 11 12 16 18 2 15 1 5 10 10 7 13 4 2 15 23 23 20 29 24 23 25 32 40 42 42 37 30 30 25 22 18 14 19 24
49 45 41 34 32 25 20 22 22 18 16 12 11 11 2 2 7 3 3 13 11 8 8 10 10 19 28 29 20 19 23 29 39 18 27 32 34 27 37 47 33 36 32 18 18 18 19
39 35 30 29 23 23 21 17 16 17 14 12 10 6 4 12 2 1 14 13 12 18 11 15 24 25 24 12 8 13 29 30 14 21 11 15 26 23 18 32 36 35 13 31 28 33 21
30 28 24 20 19 19 16 16 17 16 15 18 13 5 8 9 1 1 10 11 6 11 12 9 9 9 16 22 23 21 25 18 15 14 18 15 28 29 29 32 35 42 25 21 18 8 14
27 30 28 23 18 12 12 15 15 14 18 22 11 8 6 4 5 12 7 1 4 11 13 9 13 16 18 19 23 23 22 27 19 24 22 17 13 26 25 14 36 23 29 12 7 16 7
30 29 29 23 16 11 10 16 15 18 23 19 2 3 2 9 9 7 7 6 7 3 1 6 7 14 16 17 18 24 29 27 16 17 18 11 10 17 44 30 42 53 27 34 7 10 15
27 27 24 17 14 12 14 16 17 19 23 12 7 9 2 5 3 8 9 4 6 5 3 7 9 7 16 18 18 21 13 19 20 17 15 11 3 14 22 27 12 24 15 19 25 20 13
26 30 23 14 11 16 19 16 15 17 20 8 2 2 8 11 2 4 8 2 4 4 13 9 14 18 20 17 19 14 15 8 25 24 21 6 11 23 21 35 34 21 49 34 17 7 10
28 27 24 13 17 20 18 17 16 20 20 8 4 3 3 4 6 5 7 4 1 7 5 11 11 7 7 11 22 27 24 30 27 8 6 2 13 29 38 42 44 39 48 15 34 29 6
28 31 19 24 19 18 15 16 16 24 15 11 3 5 6 13 5 4 8 6 7 4 6 15 16 19 22 25 26 30 32 28 27 22 11 8 11 31 41 37 43 18 30 15 9 12 27
31 23 22 23 20 15 15 15 18 26 15 8 2 4 10 17 11 5 4 9 5 8 8 14 16 18 25 29 39 44 46 49 39 34 24 23 12 16 19 33 26 20 31 24 16 20 19
25 24 26 23 20 17 15 13 21 21 18 8 1 3 4 7 9 5 5 5 10 13 16 23 24 22 31 32 40 49 58 60 54 42 36 23 18 13 20 29 12 8 21 16 41 31 32
22 24 26 26 25 20 16 11 12 28 15 19 6 7 2 5 6 10 4 9 14 19 21 26 30 19 29 34 21 20 23 34 45 40 34 23 17 9 11 2 22 21 18 14 14 22 32
22 24 26 25 28 21 16 13 14 22 18 16 9 7 6 9 10 9 5 7 12 17 21 13 17 12 16 5 10 14 13 12 5 7 24 26 28 17 6 2 5 7 24 20 15 10 30
21 24 23 27 31 21 17 15 17 17 19 12 9 11 9 6 3 4 6 11 14 17 14 20 23 27 7 6 10 12 18 23 7 7 16 18 14 22 16 3 11 29 32 22 2 11 30
22 19 24 25 33 26 20 15 16 15 12 11 7 8 5 3 12 10 12 15 16 19 12 25 18 12 12 7 7 8 5 10 8 9 4 12 9 4 6 2 9 54 20 12 10 26 21
21 19 26 31 30 29 23 16 13 17 16 13 6 3 2 5 15 19 25 17 25 21 17 13 10 3 9 7 9 8 9 7 17 1 11 2 9 6 13 9 19 34 32 22 20 20 22
Wind_Direction_500mb
262 261 257 257 254 250 251 249 251 256 261 265 269 275 279 281 283 286 289 296 296 296 295 292 292 297 309 259 268 275 286 301 268 248 235 236 236 235 245 254 254 259 260 259 262 266 263
262 260 260 255 244 246 245 247 249 252 258 266 268 273 275 280 283 284 286 291 291 291 290 288 289 294 291 256 261 286 283 265 263 245 253 247 241 241 258 259 257 263 275 276 270 278 270
264 251 242 242 242 241 240 235 242 248 256 260 265 270 278 284 284 285 290 290 290 288 287 290 284 279 257 250 257 279 275 258 255 251 253 250 259 266 267 265 260 279 291 284 273 274 269
250 230 225 229 232 235 224 229 234 244 250 256 265 275 281 284 286 290 291 288 284 284 289 289 288 251 255 259 266 271 256 259 257 250 250 257 268 263 270 271 283 274 264 272 270 261 253
242 223 223 224 229 227 215 220 228 235 247 257 265 272 282 285 289 296 290 288 289 288 288 282 268 214 269 288 266 256 244 254 276 243 241 245 247 253 262 251 261 249 259 259 271 271 255
234 222 219 216 212 209 212 214 219 232 238 247 259 275 283 287 292 291 286 303 307 284 323 266 250 246 256 245 266 258 245 252 249 228 225 228 236 235 233 245 247 256 256 259 263 271 244
223 218 215 209 207 206 205 209 220 229 232 236 255 276 283 282 285 290 319 329 294 246 218 233 224 240 296 286 278 261 248 242 241 245 227 212 225 234 230 232 241 265 279 276 284 292 310
217 209 203 202 203 200 202 210 216 221 226 240 252 273 276 275 259 82 48 329 25 288 292 240 255 257 264 276 280 232 225 223 236 242 229 242 224 248 249 256 256 267 264 273 286 289 280
201 195 193 196 196 195 200 203 211 219 234 250 257 248 252 263 111 87 65 208 322 320 262 203 208 227 210 244 282 306 257 237 248 248 239 250 251 234 240 250 257 249 255 268 275 280 284
189 185 186 188 196 192 196 198 208 235 241 251 251 232 202 140 110 235 208 322 307 2 268 154 197 194 219 249 262 211 246 278 252 245 255 257 249 260 250 247 262 261 252 255 270 276 272
177 177 181 183 188 188 195 201 221 234 246 248 228 202 171 193 165 278 255 311 328 347 261 165 130 131 245 236 319 195 211 251 264 277 245 258 253 248 254 260 245 258 286 286 290 282 282
170 177 170 167 175 186 203 194 217 236 236 226 213 181 148 52 67 280 284 295 333 235 221 127 101 145 289 252 264 247 240 211 274 272 264 265 264 266 253 253 255 266 271 259 263 263 260
159 163 167 175 166 186 195 205 208 209 218 201 182 189 189 139 259 284 251 265 240 245 170 121 90 282 300 290 278 284 274 259 257 240 247 240 233 238 241 239 251 233 239 249 260 239 253
156 162 164 168 177 178 196 206 206 194 212 192 176 181 98 132 263 259 324 238 257 39 63 57 330 305 282 278 285 288 300 279 270 324 293 278 271 251 214 224 236 232 217 223 241 250 283
151 153 156 160 172 203 199 185 193 198 195 176 150 89 112 256 234 341 263 239 351 15 17 357 318 265 262 171 186 302 286 274 347 35 332 316 282 339 298 233 213 232 231 253 277 285 286
153 150 157 174 188 180 186 181 188 180 168 151 131 192 194 261 271 101 250 281 34 33 357 341 295 308 314 331 334 316 307 10 351 49 352 309 303 279 255 318 226 224 229 221 231 247 250
150 165 169 166 157 164 183 179 176 156 148 149 128 210 225 212 135 236 238 343 30 68 3 328 324 303 304 302 292 290 292 299 28 346 333 360 280 280 293 204 247 213 231 212 232 267 272
159 161 172 167 165 179 164 172 166 142 142 135 189 222 311 180 225 211 252 26 1 299 207 280 293 277 271 297 308 305 292 295 38 334 339 42 303 284 273 259 238 302 225 206 208 226 245
154 177 181 180 186 178 160 158 153 151 144 152 237 105 78 110 228 217 87 174 314 285 295 323 303 314 314 298 293 286 301 334 30 319 358 7 286 307 271 250 160 260 195 246 234 263 217
178 185 186 187 224 189 160 165 167 155 162 125 68 145 154 214 79 333 79 276 241 119 290 281 280 298 289 298 285 272 272 326 302 313 83 72 257 247 272 305 316 290 283 203 184 256 215
170 182 170 159 139 148 154 167 168 146 148 93 90 243 113 186 158 108 183 167 304 308 228 288 291 304 299 291 305 299 310 307 306 57 72 103 271 274 273 291 293 285 288 262 211 219 232
177 169 169 166 159 157 155 162 148 143 123 68 89 317 194 110 96 241 110 174 324 22 0 304 315 306 309 295 292 299 308 301 301 292 181 312 279 307 283 277 292 271 267 125 337 257 233
177 168 159 167 166 165 170 163 145 141 107 73 16 286 293 139 163 140 87 32 359 348 303 287 296 312 302 301 305 300 292 284 275 274 270 282 287 309 278 306 298 258 208 181 189 69 52
165 177 187 195 185 167 155 159 163 147 100 53 347 283 107 200 203 125 123 223 262 298 311 301 292 278 288 314 304 291 274 267 259 253 255 246 256 266 289 307 225 101 81 87 77 44 30
158 169 177 176 180 176 163 158 146 157 122 65 101 356 18 287 137 128 216 282 303 283 270 282 292 314 320 313 307 287 271 247 239 240 226 204 229 259 247 150 104 74 36 45 35 51 28
160 165 180 186 184 175 181 171 137 145 134 74 73 40 29 344 46 90 312 323 323 321 313 322 318 311 302 287 268 268 284 309 201 191 193 189 206 235 306 91 107 45 332 13 322 85 20
165 178 192 184 183 174 179 156 159 152 164 94 88 96 52 18 34 14 6 342 317 327 291 311 335 314 313 258 259 257 261 274 285 192 171 199 231 253 288 131 92 341 338 299 275 35 30
171 168 179 191 191 187 180 173 167 171 176 127 86 122 120 308 290 310 307 288 292 298 298 326 326 9 305 288 306 347 296 255 267 61 271 188 246 267 232 287 69 353 34 54 14 41 48
189 196 195 192 189 187 188 195 193 192 182 158 66 54 0 273 259 273 286 266 264 271 280 294 308 312 354 312 357 315 267 323 2 298 22 99 60 16 20 70 69 51 68 59 68 74 65
Wind_Speed_850mb
92 91 85 79 70 58 52 47 44 41 37 35 34 35 34 34 31 31 35 34 35 35 34 33 35 37 31 17 30 24 28 31 15 15 22 28 34 40 39 40 47 47 45 60 58 63 60
100 92 93 86 73 64 53 47 43 40 37 37 33 32 32 34 33 37 38 37 37 37 36 34 35 33 23 25 15 12 22 15 18 24 23 28 32 34 40 36 37 48 53 49 55 53 53
98 95 86 82 78 66 56 48 44 40 37 34 32 31 35 37 38 39 39 37 36 36 36 33 29 24 24 50 21 20 23 21 23 28 32 27 29 35 28 27 49 45 38 38 43 52 48
103 89 87 79 69 67 57 50 44 39 35 34 34 35 34 36 40 40 38 35 34 35 32 26 20 12 21 16 20 26 28 33 32 31 31 30 25 33 39 37 44 38 34 35 34 43 52
115 96 94 79 74 70 53 50 43 38 36 36 33 30 33 37 39 35 31 28 29 28 24 18 6 18 20 13 15 8 13 18 17 25 28 24 27 33 31 28 32 30 37 44 48 43 39
116 100 92 77 67 60 56 47 44 41 37 31 28 28 30 34 30 24 21 16 20 17 9 5 15 15 20 14 10 14 14 16 15 15 22 28 21 24 27 28 33 34 36 39 38 32 32
113 105 89 76 66 59 55 49 44 37 35 31 27 24 25 23 17 11 10 5 7 6 25 28 6 30 30 25 27 37 37 26 23 26 24 33 23 31 37 39 42 39 44 46 41 45 41
116 95 79 71 65 57 49 42 39 36 32 29 22 20 18 15 5 7 7 7 5 8 16 35 29 25 23 16 18 10 13 31 24 29 31 29 32 34 38 39 35 39 37 39 42 43 37
100 84 77 67 58 48 40 37 34 31 29 29 22 16 13 7 5 6 4 1 6 9 12 13 22 14 7 10 12 5 3 20 31 31 36 38 32 32 40 35 36 37 35 33 37 35 45
100 83 68 57 47 40 39 35 30 29 27 26 19 12 5 14 5 4 6 5 9 5 8 22 20 13 13 11 13 14 9 14 28 33 37 39 36 44 36 32 32 40 33 36 34 33 25
80 68 58 52 44 43 37 29 23 25 25 21 14 9 10 16 13 3 5 9 10 3 6 24 21 10 8 12 19 21 8 15 25 30 25 34 34 38 41 40 34 39 29 30 31 28 33
56 55 51 52 52 35 28 25 22 22 20 15 12 10 12 6 4 5 11 4 1 9 9 12 7 4 13 13 16 6 16 20 26 26 33 41 49 36 33 30 32 31 29 32 28 26 29
58 53 45 39 32 31 30 19 23 20 16 12 11 12 16 18 2 15 1 5 10 10 7 13 4 2 15 23 23 20 29 24 23 25 32 40 42 42 37 30 30 25 22 18 14 19 24
49 45 41 34 32 25 20 22 22 18 16 12 11 11 2 2 7 3 3 13 11 8 8 10 10 19 28 29 20 19 23 29 39 18 27 32 34 27 37 47 33 36 32 18 18 18 19
39 35 30 29 23 23 21 17 16 17 14 12 10 6 4 12 2 1 14 13 12 18 11 15 24 25 24 12 8 13 29 30 14 21 11 15 26 23 18 32 36 35 13 31 28 33 21
30 28 24 20 19 19 16 16 17 16 15 18 13 5 8 9 1 1 10 11 6 11 12 9 9 9 16 22 23 21 25 18 15 14 18 15 28 29 29 32 35 42 25 21 18 8 14
27 30 28 23 18 12 12 15 15 14 18 22 11 8 6 4 5 12 7 1 4 11 13 9 13 16 18 19 23 23 22 27 19 24 22 17 13 26 25 14 36 23 29 12 7 16 7
30 29 29 23 16 11 10 16 15 18 23 19 2 3 2 9 9 7 7 6 7 3 1 6 7 14 16 17 18 24 29 27 16 17 18 11 10 17 44 30 42 53 27 34 7 10 15
27 27 24 17 14 12 14 16 17 19 23 12 7 9 2 5 3 8 9 4 6 5 3 7 9 7 16 18 18 21 13 19 20 17 15 11 3 14 22 27 12 24 15 19 25 20 13
26 30 23 14 11 16 19 16 15 17 20 8 2 2 8 11 2 4 8 2 4 4 13 9 14 18 20 17 19 14 15 8 25 24 21 6 11 23 21 35 34 21 49 34 17 7 10
28 27 24 13 17 20 18 17 16 20 20 8 4 3 3 4 6 5 7 4 1 7 5 11 11 7 7 11 22 27 24 30 27 8 6 2 13 29 38 42 44 39 48 15 34 29 6
28 31 19 24 19 18 15 16 16 24 15 11 3 5 6 13 5 4 8 6 7 4 6 15 16 19 22 25 26 30 32 28 27 22 11 8 11 31 41 37 43 18 30 15 9 12 27
31 23 22 23 20 15 15 15 18 26 15 8 2 4 10 17 11 5 4 9 5 8 8 14 16 18 25 29 39 44 46 49 39 34 24 23 12 16 19 33 26 20 31 24 16 20 19
25 24 26 23 20 17 15 13 21 21 18 8 1 3 4 7 9 5 5 5 10 13 16 23 24 22 31 32 40 49 58 60 54 42 36 23 18 13 20 29 12 8 21 16 41 31 32
22 24 26 26 25 20 16 11 12 28 15 19 6 7 2 5 6 10 4 9 14 19 21 26 30 19 29 34 21 20 23 34 45 40 34 23 17 9 11 2 22 21 18 14 14 22 32
22 24 26 25 28 21 16 13 14 22 18 16 9 7 6 9 10 9 5 7 12 17 21 13 17 12 16 5 10 14 13 12 5 7 24 26 28 17 6 2 5 7 24 20 15 10 30
21 24 23 27 31 21 17 15 17 17 19 12 9 11 9 6 3 4 6 11 14 17 14 20 23 27 7 6 10 12 18 23 7 7 16 18 14 22 16 3 11 29 32 22 2 11 30
22 19 24 25 33 26 20 15 16 15 12 11 7 8 5 3 12 10 12 15 16 19 12 25 18 12 12 7 7 8 5 10 8 9 4 12 9 4 6 2 9 54 20 12 10 26 21
21 19 26 31 30 29 23 16 13 17 16 13 6 3 2 5 15 19 25 17 25 21 17 13 10 3 9 7 9 8 9 7 17 1 11 2 9 6 13 9 19 34 32 22 20 20 22
Wind_Direction_850mb
262 261 257 257 254 250 251 249 251 256 261 265 269 275 279 281 283 286 289 296 296 296 295 292 292 297 309 259 268 275 286 301 268 248 235 236 236 235 245 254 254 259 260 259 262 266 263
262 260 260 255 244 246 245 247 249 252 258 266 268 273 275 280 283 284 286 291 291 291 290 288 289 294 291 256 261 286 283 265 263 245 253 247 241 241 258 259 257 263 275 276 270 278 270
264 251 242 242 242 241 240 235 242 248 256 260 265 270 278 284 284 285 290 290 290 288 287 290 284 279 257 250 257 279 275 258 255 251 253 250 259 266 267 265 260 279 291 284 273 274 269
250 230 225 229 232 235 224 229 234 244 250 256 265 275 281 284 286 290 291 288 284 284 289 289 288 251 255 259 266 271 256 259 257 250 250 257 268 263 270 271 283 274 264 272 270 261 253
242 223 223 224 229 227 215 220 228 235 247 257 265 272 282 285 289 296 290 288 289 288 288 282 268 214 269 288 266 256 244 254 276 243 241 245 247 253 262 251 261 249 259 259 271 271 255
234 222 219 216 212 209 212 214 219 232 238 247 259 275 283 287 292 291 286 303 307 284 323 266 250 246 256 245 266 258 245 252 249 228 225 228 236 235 233 245 247 256 256 259 263 271 244
223 218 215 209 207 206 205 209 220 229 232 236 255 276 283 282 285 290 319 329 294 246 218 233 224 240 296 286 278 261 248 242 241 245 227 212 225 234 230 232 241 265 279 276 284 292 310
217 209 203 202 203 200 202 210 216 221 226 240 252 273 276 275 259 82 48 329 25 288 292 240 255 257 264 276 280 232 225 223 236 242 229 242 224 248 249 256 256 267 264 273 286 289 280
201 195 193 196 196 195 200 203 211 219 234 250 257 248 252 263 111 87 65 208 322 320 262 203 208 227 210 244 282 306 257 237 248 248 239 250 251 234 240 250 257 249 255 268 275 280 284
189 185 186 188 196 192 196 198 208 235 241 251 251 232 202 140 110 235 208 322 307 2 268 154 197 194 219 249 262 211 246 278 252 245 255 257 249 260 250 247 262 261 252 255 270 276 272
177 177 181 183 188 188 195 201 221 234 246 248 228 202 171 193 165 278 255 311 328 347 261 165 130 131 245 236 319 195 211 251 264 277 245 258 253 248 254 260 245 258 286 286 290 282 282
170 177 170 167 175 186 203 194 217 236 236 226 213 181 148 52 67 280 284 295 333 235 221 127 101 145 289 252 264 247 240 211 274 272 264 265 264 266 253 253 255 266 271 259 263 263 260
159 163 167 175 166 186 195 205 208 209 218 201 182 189 189 139 259 284 251 265 240 245 170 121 90 282 300 290 278 284 274 259 257 240 247 240 233 238 241 239 251 233 239 249 260 239 253
156 162 164 168 177 178 196 206 206 194 212 192 176 181 98 132 263 259 324 238 257 39 63 57 330 305 282 278 285 288 300 279 270 324 293 278 271 251 214 224 236 232 217 223 241 250 283
151 153 156 160 172 203 199 185 193 198 195 176 150 89 112 256 234 341 263 239 351 15 17 357 318 265 262 171 186 302 286 274 347 35 332 316 282 339 298 233 213 232 231 253 277 285 286
153 150 157 174 188 180 186 181 188 180 168 151 131 192 194 261 271 101 250 281 34 33 357 341 295 308 314 331 334 316 307 10 351 49 352 309 303 279 255 318 226 224 229 221 231 247 250
150 165 169 166 157 164 183 179 176 156 148 149 128 210 225 212 135 236 238 343 30 68 3 328 324 303 304 302 292 290 292 299 28 346 333 360 280 280 293 204 247 213 231 212 232 267 272
159 161 172 167 165 179 164 172 166 142 142 135 189 222 311 180 225 211 252 26 1 299 207 280 293 277 271 297 308 305 292 295 38 334 339 42 303 284 273 259 238 302 225 206 208 226 245
154 177 181 180 186 178 160 158 153 151 144 152 237 105 78 110 228 217 87 174 314 285 295 323 303 314 314 298 293 286 301 334 30 319 358 7 286 307 271 250 160 260 195 246 234 263 217
178 185 186 187 224 189 160 165 167 155 162 125 68 145 154 214 79 333 79 276 241 119 290 281 280 298 289 298 285 272 272 326 302 313 83 72 257 247 272 305 316 290 283 203 184 256 215
170 182 170 159 139 148 154 167 168 146 148 93 90 243 113 186 158 108 183 167 304 308 228 288 291 304 299 291 305 299 310 307 306 57 72 103 271 274 273 291 293 285 288 262 211 219 232
177 169 169 166 159 157 155 162 148 143 123 68 89 317 194 110 96 241 110 174 324 22 0 304 315 306 309 295 292 299 308 301 301 292 181 312 279 307 283 277 292 271 267 125 337 257 233
177 168 159 167 166 165 170 163 145 141 107 73 16 286 293 139 163 140 87 32 359 348 303 287 296 312 302 301 305 300 292 284 275 274 270 282 287 309 278 306 298 258 208 181 189 69 52
165 177 187 195 185 167 155 159 163 147 100 53 347 283 107 200 203 125 123 223 262 298 311 301 292 278 288 314 304 291 274 267 259 253 255 246 256 266 289 307 225 101 81 87 77 44 30
158 169 177 176 180 176 163 158 146 157 122 65 101 356 18 287 137 128 216 282 303 283 270 282 292 314 320 313 307 287 271 247 239 240 226 204 229 259 247 150 104 74 36 45 35 51 28
160 165 180 186 184 175 181 171 137 145 134 74 73 40 29 344 46 90 312 323 323 321 313 322 318 311 302 287 268 268 284 309 201 191 193 189 206 235 306 91 107 45 332 13 322 85 20
165 178 192 184 183 174 179 156 159 152 164 94 88 96 52 18 34 14 6 342 317 327 291 311 335 314 313 258 259 257 261 274 285 192 171 199 231 253 288 131 92 341 338 299 275 35 30
171 168 179 191 191 187 180 173 167 171 176 127 86 122 120 308 290 310 307 288 292 298 298 326 326 9 305 288 306 347 296 255 267 61 271 188 246 267 232 287 69 353 34 54 14 41 48
189 196 195 192 189 187 188 195 193 192 182 158 66 54 0 273 259 273 286 266 264 271 280 294 308 312 354 312 357 315 267 323 2 298 22 99 60 16 20 70 69 51 68 59 68 74 65